Etusivu
METAR-TAF:

METAR-TAF

Lentoasemat :

Lowell, Idaho, Yhdysvallat

Leveyspiiri: 46-08-39N, Pituuspiiri: 115-35-47W, korkeus merenpinnasta: 480 m

Tämänhetkinen sää

Tämä raportti tehtiin 1 tunti ja 0 minuuttia sitten, kello 10.52 UTC
tyyntä
Lämpötila 6°C
Kosteus 87%
Ilmanpaine 1022 hPa

METAR: KP69 181052Z AUTO 00000KT 06/04 A3019 RMK AO1 SLP233 T00560044

Aika: 03:52 (11:52 UTC)


TAF: puuttuu

Säähavainnot ja -ennusteet yli 4000 lentoasemalta (METAR- ja TAF-raportit).

Käytössä olevat sääasemat on merkitty karttaan keltaisilla ja punaisilla pisteillä.

Aseta hiiri pisteen päälle nähdäksesi sääaseman nimen.

Klikkaa sitten nähdäksesi säähavainnot ja -ennusteet.

Kartan vaihtaminen: klikkaa mustalla rastilla varustettuja vihreitä pisteitä, niin voit zoomata sisään; viivalla varustettua vihreää pistettä, niin voit zoomata ulos tai vihreitä nuolia, niin pääset viereisille kartoille.


METAR-TAF: